Regional Weather Roundup
Issued by NWS

Home | Current Version | Previous Version | Graphics & Text | Print | Product List | Glossary On
Versions: 1 2 3 4 5 6 7 8 9 10 11 12 13 14 15 16 17 18 19 20 21 22 23 24 25 26 27 28 29 30 31 32 33 34 35 36 37 38 39 40 41 42 43 44 45 46 47 48 49 50
000
ASUS43 KMKX 222059
RWRWI

WISCONSIN REGIONAL WEATHER ROUNDUP
NATIONAL WEATHER SERVICE MILWAUKEE/SULLIVAN WI
300 PM CST SUN JAN 22 2017

NOTE: "FAIR" INDICATES FEW OR NO CLOUDS BELOW 12,000 FEET WITH NO
SIGNIFICANT WEATHER AND/OR OBSTRUCTIONS TO VISIBILITY.

WIZ001-002-006>008-014>016-023>028-222200-
NORTHWEST WISCONSIN

CITY           SKY/WX    TMP DP  RH WIND       PRES   REMARKS
SUPERIOR ARPT  CLOUDY    38  36  94 CALM      29.69S
ASHLAND        CLOUDY    36  36 100 CALM      29.69S FOG
HAYWARD        CLOUDY    37  34  89 N3        29.67R
SIREN          CLOUDY    37  35  92 W6        29.70R WCI  33
CUMBERLAND     CLOUDY    34  34 100 NW5       29.68R WCI  30
RICE LAKE      CLOUDY    37  35  92 NW3       29.69S
CHETEK         CLOUDY    36  36 100 CALM      29.68S
LADYSMITH      CLOUDY    36  36  99 NW6       29.67R WCI  31
EAU CLAIRE     NOT AVBL
MENOMONIE        N/A    N/A N/A N/A MISG        N/A
NEW RICHMOND   CLOUDY    37  37 100 NW7       29.70S WCI  31
OSCEOLA        CLOUDY    38  38 100 NW3       29.74R
$$

WIZ003>005-009-010-017-018-222200-
NORTH CENTRAL WISCONSIN

CITY           SKY/WX    TMP DP  RH WIND       PRES   REMARKS
MANITOWISH WTR CLOUDY    35  35 100 NW5       29.63R WCI  31
ARBOR VITAE    CLOUDY    37  36  98 N5        29.62S FOG     WCI  33
WOODRUFF       CLOUDY    37  36  98 N5        29.62S FOG     WCI  33
RHINELANDER    CLOUDY    38  38 100 NW5       29.62S WCI  34
EAGLE RIVER    CLOUDY    36  36 100 NW5       29.62R FOG     WCI  32
LAND O LAKES   FOG       37  37 100 NW5       29.63R VSB 1   WCI  33
PHILLIPS       CLOUDY    34  34 100 CALM      29.64R FOG
TOMAHAWK       CLOUDY    37  36  96 NW3       29.64R
MEDFORD        CLOUDY    35  34  99 NW7       29.63S FOG     WCI  29
MERRILL        CLOUDY    38  38 100 CALM        N/A
$$

WIZ029-030-035-036-043>047-222200-
CENTRAL WISCONSIN

CITY           SKY/WX    TMP DP  RH WIND       PRES   REMARKS
WAUSAU         CLOUDY    37  35  92 NW6       29.62S WCI  32
MOSINEE        CLOUDY    36  36 100 NW6       29.64R WCI  31
MARSHFIELD     CLOUDY    36  34  92 W5        29.64R FOG     WCI  32
STEVENS POINT  CLOUDY    35  35 100 CALM      29.64S
WAUPACA        CLOUDY    40  39  97 CALM      29.64S
WAUTOMA        CLOUDY    38  37  97 W7        29.66R WCI  33
WISC RAPIDS    CLOUDY    38  36  92 NW7       29.66R WCI  33
CAMP DOUGLAS   NOT AVBL
$$

WIZ011>013-019>022-031-037>040-048>050-222200-
NORTHEAST WISCONSIN

CITY           SKY/WX    TMP DP  RH WIND       PRES   REMARKS
ANTIGO         CLOUDY    36  36 100 NW3       29.62R
SHAWANO        CLOUDY    41  40  96 W3        29.63S
OCONTO         CLOUDY    38  37  99 NW3       29.63R
STURGEON BAY   FOG       38  38 100 W3        29.64R VSB 1/2
GREEN BAY      CLOUDY    40  39  97 CALM      29.64R FOG
MANITOWOC      FOG       37  36  93 MISG      29.65R VSB 3/4
APPLETON       CLOUDY    37  37 100 W5        29.62R FOG     WCI  34
CLINTONVILLE   CLOUDY    37  37 100 CALM      29.63S
OSHKOSH        CLOUDY    40  37  89 CALM      29.64R
$$

WIZ032>034-041-042-053>061-222200-
SOUTHWEST WISCONSIN

CITY           SKY/WX    TMP DP  RH WIND       PRES   REMARKS
LA CROSSE      CLOUDY    40  36  86 N7        29.69R FOG
SPARTA         CLOUDY    36  36 100 W3        29.68R
VIROQUA        CLOUDY    35  35 100 NW6       29.66R VSB 1/4 WCI  30
BOSCOBEL       CLOUDY    40  36  86 CALM      29.68R
PRAIRIE DU CHI CLOUDY    38  36  91 NW6       29.68R WCI  34
PLATTEVILLE    CLOUDY    41  39  95 N7        29.65S
$$

WIZ056-057-062-063-064-067-068-222200-
SOUTH CENTRAL WISCONSIN

CITY           SKY/WX    TMP DP  RH WIND       PRES   REMARKS
REEDSBURG      CLOUDY    38  38 100 NW5       29.65S WCI  34
BARABOO/DELLS  CLOUDY    37  37  99 NW5       29.65R FOG     WCI  33
LONE ROCK      NOT AVBL
MINERAL POINT  CLOUDY    41  39  93 NW5       29.64S
MADISON        CLOUDY    41  37  86 NW5       29.65R
MIDDLETON      CLOUDY    41  41 100 NW5       29.65R
WATERTOWN      CLOUDY    40  39  95 NW3       29.64R
MONROE         CLOUDY    41  37  87 NW6       29.63S
JANESVILLE     CLOUDY    39  39 100 N8        29.65R WCI  34
$$

WIZ051-052-058>065-066-070>072-222200-
SOUTHEAST WISCONSIN

CITY           SKY/WX    TMP DP  RH WIND       PRES   REMARKS
MILWAUKEE      CLOUDY    45  38  76 NE5       29.64R
WAUKESHA       CLOUDY    39  36  87 NW9       29.65R WCI  33
MILWAUKEE/TIMM CLOUDY    45  36  70 CALM      29.64R
RACINE         CLOUDY    44  38  79 N6        29.64S
KENOSHA        CLOUDY    43  38  82 N8        29.63R
FOND DU LAC    LGT RAIN  40  35  83 W6        29.65R
SHEBOYGAN      PTSUNNY   44  38  79 NW7       29.64R
WEST BEND      CLOUDY    41  37  87 W3        29.64R
JUNEAU         CLOUDY    40  38  91 NW3       29.65R
$$

LSZ147-162-222200-
LAKE SUPERIOR

STATION/POSITION TIME  TEMP    WIND        PRES    WAVE
                       AIR SEA DIR/SP/G            HT/PER
                 (UTC) (F)     (DEG/KT/KT) (MB)    (FT/S)
DEVILS ISLAND    2000   36     340/  3/  3 1005.8R
PORT WING        2040   35     270/  4/  5 1005.8S
SAXON HARBOR     2040   34     300/  5/  6 1005.4R
$$

LMZ867-665-643>646-222200-
LAKE MICHIGAN

STATION/POSITION TIME  TEMP    WIND        PRES    WAVE
                       AIR SEA DIR/SP/G            HT/PER
                 (UTC) (F)     (DEG/KT/KT) (MB)    (FT/S)
NORTHPORT PIER   2040   35     330/  3/  4 1003.7R
SISTER BAY       2005   35        CALM       N/A
KEWAUNEE LAKESHO 2030   38     290/  4/  7 1003.3R
SHEBOYGAN LAKESH 2000   37      90/  2/  3 1003.2R
PORT WASHINGTON  2030   41     180/  5/  6 1004.7R
KENOSHA   LAKESH 2000   38     360/  2/  3 1003.4
$$

TC  - TEMPERATURE IN CELSIUS
VSB - VISIBILITY IN STATUTE MILES
WCI - WIND CHILL INDEX
HX  - HEAT INDEX




USA.gov is the U.S. government's official web portal to all federal, state and local government web resources and services.